• In Russia
  • List of Countries
  • For 7 days
  • Water Temperature
  • Satellite Maps
  • Weather Map
  • Weather Widgets
  • user-avatar
    Login

    Hourly Weather Ludza

    Today, 17 August, Friday

    Time Temperature Precipitation Wind Pressure Humidity
    00:00 +14°C° 0 mm 1 mps 752 mmHg 92%
    01:00 +14°C° 0 mm 1 mps 753 mmHg 92%
    02:00 +13°C° 0 mm 1 mps 753 mmHg 94%
    03:00 +13°C° 0 mm 1 mps 753 mmHg 95%
    04:00 +13°C° 0 mm 1 mps 753 mmHg 95%
    05:00 +13°C° 0 mm 1 mps 753 mmHg 96%
    06:00 +15°C° 0 mm 1 mps 753 mmHg 90%
    07:00 +16°C° 0 mm 1 mps 753 mmHg 84%
    08:00 +19°C° 0 mm 1 mps 753 mmHg 78%
    09:00 +20°C° 0 mm 2 mps 753 mmHg 72%
    10:00 +21°C° 0 mm 2 mps 753 mmHg 66%
    11:00 +24°C° 0 mm 2 mps 753 mmHg 60%
    12:00 +24°C° 0 mm 2 mps 753 mmHg 58%
    13:00 +25°C° 0 mm 2 mps 753 mmHg 56%
    14:00 +26°C° 0 mm 2 mps 752 mmHg 54%
    15:00 +26°C° 0 mm 2 mps 752 mmHg 56%
    16:00 +25°C° 0 mm 2 mps 752 mmHg 58%
    17:00 +25°C° 0 mm 2 mps 752 mmHg 60%
    18:00 +23°C° 0 mm 1 mps 751 mmHg 68%
    19:00 +22°C° 0 mm 1 mps 751 mmHg 75%
    20:00 +20°C° 0 mm 1 mps 751 mmHg 82%
    21:00 +19°C° 0 mm 1 mps 751 mmHg 85%
    22:00 +19°C° 0 mm 1 mps 751 mmHg 88%
    23:00 +17°C° 0 mm 2 mps 752 mmHg 91%

    Tomorrow, 18 August, Saturday

    Time Temperature Precipitation Wind Pressure Humidity
    00:00 +17°C° 0 mm 2 mps 752 mmHg 93%
    01:00 +16°C° 0 mm 2 mps 751 mmHg 94%
    02:00 +16°C° 0 mm 2 mps 751 mmHg 96%
    03:00 +16°C° 0 mm 2 mps 752 mmHg 96%
    04:00 +16°C° 0 mm 2 mps 752 mmHg 97%
    05:00 +16°C° 0 mm 2 mps 752 mmHg 97%
    06:00 +17°C° 0 mm 2 mps 752 mmHg 92%
    07:00 +19°C° 0 mm 2 mps 752 mmHg 88%
    08:00 +20°C° 0 mm 2 mps 752 mmHg 83%
    09:00 +23°C° 0.2 mm 2 mps 752 mmHg 78%
    10:00 +24°C° 0.2 mm 2 mps 751 mmHg 73%
    11:00 +26°C° 0.2 mm 2 mps 751 mmHg 68%
    12:00 +26°C° 0.2 mm 2 mps 751 mmHg 67%
    13:00 +26°C° 0.2 mm 2 mps 751 mmHg 66%
    14:00 +27°C° 0.2 mm 2 mps 750 mmHg 65%
    15:00 +26°C° 0.5 mm 2 mps 750 mmHg 69%
    16:00 +26°C° 0.5 mm 2 mps 750 mmHg 72%
    17:00 +25°C° 0.5 mm 2 mps 750 mmHg 76%
    18:00 +24°C° 0.3 mm 2 mps 750 mmHg 82%
    19:00 +21°C° 0.3 mm 2 mps 750 mmHg 87%
    20:00 +20°C° 0.3 mm 2 mps 750 mmHg 93%
    21:00 +19°C° 0.2 mm 2 mps 750 mmHg 94%
    22:00 +19°C° 0.2 mm 2 mps 750 mmHg 95%
    23:00 +18°C° 0.2 mm 2 mps 750 mmHg 96%

    Day after tomorrow, 19 August, Sunday

    Time Temperature Precipitation Wind Pressure Humidity
    00:00 +18°C° 0.1 mm 2 mps 750 mmHg 96%
    01:00 +18°C° 0.1 mm 2 mps 750 mmHg 97%
    02:00 +17°C° 0.1 mm 2 mps 750 mmHg 97%
    03:00 +17°C° 0 mm 2 mps 750 mmHg 97%
    04:00 +17°C° 0 mm 2 mps 749 mmHg 97%
    05:00 +16°C° 0 mm 2 mps 749 mmHg 97%
    06:00 +17°C° 0 mm 2 mps 750 mmHg 95%
    07:00 +18°C° 0 mm 2 mps 750 mmHg 92%
    08:00 +19°C° 0 mm 3 mps 750 mmHg 90%
    09:00 +20°C° 0 mm 3 mps 750 mmHg 79%
    10:00 +22°C° 0 mm 3 mps 750 mmHg 68%
    11:00 +23°C° 0 mm 4 mps 749 mmHg 57%
    12:00 +23°C° 0 mm 4 mps 749 mmHg 54%
    13:00 +25°C° 0 mm 4 mps 749 mmHg 50%
    14:00 +25°C° 0 mm 4 mps 749 mmHg 47%
    15:00 +23°C° 0 mm 4 mps 749 mmHg 53%
    16:00 +24°C° 0 mm 3 mps 749 mmHg 59%
    17:00 +24°C° 0 mm 3 mps 749 mmHg 65%
    18:00 +21°C° 0.2 mm 3 mps 749 mmHg 73%
    19:00 +20°C° 0.2 mm 2 mps 749 mmHg 81%
    20:00 +18°C° 0.2 mm 2 mps 749 mmHg 89%
    21:00 +18°C° 0.1 mm 2 mps 749 mmHg 92%
    22:00 +18°C° 0.1 mm 2 mps 749 mmHg 94%
    23:00 +17°C° 0.1 mm 2 mps 749 mmHg 96%

    20 August, Monday

    Time Temperature Precipitation Wind Pressure Humidity
    00:00 +17°C° 0 mm 2 mps 749 mmHg 96%
    01:00 +16°C° 0 mm 2 mps 749 mmHg 97%
    02:00 +16°C° 0 mm 2 mps 749 mmHg 97%
    03:00 +16°C° 0 mm 2 mps 749 mmHg 98%
    04:00 +15°C° 0 mm 2 mps 749 mmHg 98%
    05:00 +15°C° 0 mm 2 mps 749 mmHg 98%
    06:00 +16°C° 0 mm 2 mps 749 mmHg 96%
    07:00 +16°C° 0 mm 2 mps 749 mmHg 94%
    08:00 +17°C° 0 mm 2 mps 749 mmHg 92%
    09:00 +18°C° 0 mm 2 mps 749 mmHg 89%
    10:00 +19°C° 0 mm 3 mps 749 mmHg 86%
    11:00 +19°C° 0 mm 3 mps 749 mmHg 82%
    12:00 +20°C° 0.2 mm 3 mps 749 mmHg 79%
    13:00 +21°C° 0.2 mm 3 mps 749 mmHg 76%
    14:00 +21°C° 0.2 mm 3 mps 749 mmHg 73%
    15:00 +21°C° 0.5 mm 2 mps 749 mmHg 79%
    16:00 +20°C° 0.5 mm 2 mps 749 mmHg 85%
    17:00 +19°C° 0.5 mm 2 mps 748 mmHg 91%
    18:00 +18°C° 0.1 mm 2 mps 749 mmHg 93%
    19:00 +18°C° 0.1 mm 1 mps 749 mmHg 94%
    20:00 +16°C° 0.1 mm 1 mps 749 mmHg 96%
    21:00 +16°C° 0 mm 1 mps 749 mmHg 96%
    22:00 +16°C° 0 mm 1 mps 749 mmHg 97%
    23:00 +15°C° 0 mm 1 mps 749 mmHg 97%

    21 August, Tuesday

    Time Temperature Precipitation Wind Pressure Humidity
    00:00 +15°C° 0 mm 1 mps 749 mmHg 96%
    01:00 +15°C° 0 mm 1 mps 749 mmHg 96%
    02:00 +14°C° 0 mm 1 mps 749 mmHg 95%
    03:00 +14°C° 0 mm 1 mps 749 mmHg 95%
    04:00 +14°C° 0 mm 1 mps 749 mmHg 94%
    05:00 +14°C° 0 mm 1 mps 749 mmHg 94%
    06:00 +15°C° 0 mm 1 mps 749 mmHg 91%
    07:00 +16°C° 0 mm 1 mps 749 mmHg 89%
    08:00 +18°C° 0 mm 1 mps 749 mmHg 86%
    09:00 +19°C° 0.1 mm 1 mps 749 mmHg 85%
    10:00 +19°C° 0.1 mm 2 mps 749 mmHg 84%
    11:00 +19°C° 0.1 mm 2 mps 749 mmHg 82%
    12:00 +20°C° 0.4 mm 2 mps 748 mmHg 81%
    13:00 +21°C° 0.4 mm 3 mps 748 mmHg 80%
    14:00 +22°C° 0.4 mm 3 mps 747 mmHg 79%
    15:00 +21°C° 1 mm 3 mps 747 mmHg 83%
    16:00 +21°C° 1 mm 3 mps 747 mmHg 86%
    17:00 +20°C° 1 mm 3 mps 746 mmHg 90%
    18:00 +19°C° 0.3 mm 2 mps 746 mmHg 92%
    19:00 +19°C° 0.3 mm 2 mps 746 mmHg 94%
    20:00 +18°C° 0.3 mm 2 mps 745 mmHg 95%
    21:00 +18°C° 0 mm 2 mps 745 mmHg 96%
    22:00 +17°C° 0 mm 2 mps 745 mmHg 96%
    23:00 +17°C° 0 mm 2 mps 745 mmHg 97%

    22 August, Wednesday

    Time Temperature Precipitation Wind Pressure Humidity
    00:00 +17°C° 0 mm 2 mps 745 mmHg 97%
    01:00 +16°C° 0 mm 2 mps 746 mmHg 98%
    02:00 +16°C° 0 mm 2 mps 746 mmHg 98%
    03:00 +16°C° 0 mm 2 mps 746 mmHg 98%
    04:00 +16°C° 0 mm 3 mps 746 mmHg 98%
    05:00 +16°C° 0 mm 3 mps 746 mmHg 97%
    06:00 +17°C° 0 mm 3 mps 746 mmHg 95%
    07:00 +17°C° 0 mm 3 mps 746 mmHg 93%
    08:00 +17°C° 0 mm 3 mps 747 mmHg 91%
    09:00 +19°C° 0 mm 3 mps 746 mmHg 82%
    10:00 +20°C° 0 mm 4 mps 746 mmHg 74%
    11:00 +22°C° 0 mm 4 mps 746 mmHg 65%
    12:00 +23°C° 0 mm 4 mps 746 mmHg 63%
    13:00 +23°C° 0 mm 4 mps 746 mmHg 62%
    14:00 +25°C° 0 mm 5 mps 746 mmHg 60%
    15:00 +23°C° 0.2 mm 4 mps 745 mmHg 68%
    16:00 +22°C° 0.2 mm 4 mps 745 mmHg 75%
    17:00 +20°C° 0.2 mm 4 mps 745 mmHg 82%
    18:00 +19°C° 0.1 mm 4 mps 745 mmHg 85%
    19:00 +19°C° 0.1 mm 3 mps 745 mmHg 87%
    20:00 +18°C° 0.1 mm 3 mps 745 mmHg 90%
    21:00 +17°C° 0 mm 3 mps 745 mmHg 90%
    22:00 +16°C° 0 mm 3 mps 745 mmHg 91%
    23:00 +14°C° 0 mm 3 mps 745 mmHg 92%
    Show more